Airfield :







YOU CAN JOIN US ON...

 
LOGIN :

Register | Disclaimer

   EN    FR    IT 

 









Legend :    VFR   Marginal VFR   IFR   Intensive IFR   Very Intensive IFR
Visi :
Ceiling :
>= 8 km
>= 3000ft
5 to 8 km
1000 to 3000 ft
1500m to 5 km
500 to 1000 ft
800 to 1500m
200 to 500 ft
< 800m
< 200 ft
Symbols :   Thunderstorms  Fog  Heavy snow  Heavy precipitations  Wind > 20 kt






- Airport Elevation : 29 ft
- IATA code : PSE


TJPS - Mercedita

METAR N/A
TAF TJPS
Valid from the 23 at 18:00 until the 24 at 18:00 UTC


231740Z 2318/2418 14017KT P6SM VCTS SCT030CB SCT060 SCT090
TEMPO 2318/2319 07015G25KT 2SM TSRA BKN025CB OVC060
FM232300 09009KT P6SM FEW025 FEW035
FM241400 15015KT P6SM FEW025
TJZS FIR / North America



MET'MAP, your aeronautical weather chart ! - Copyright ORBIFLY December 2007 - Disclaimer

ORBIFLY MET'MAP TEAM :

Programming & Development : Alexandra Zaïnal
Concept & original design : Baudouin d'Aumeries
Assistance for programming : Marc-Olivier Méhu
Technical & hardware support : Manuel Goepfert

Contact : metmap@orbifly.com




SOURCES & CREDITS :

   NOAA